• In Netherlands
  • List of Countries
  • For 7 days
  • Water Temperature
  • Satellite Maps
  • Weather Map
  • Weather Widgets
  • user-avatar
    Login

    Hourly Weather Innsbruck

    Today, 25 July, Tuesday

    Time Temperature Precipitation Wind Pressure Humidity
    00:00 +2°C° 0 mm 2 mps 592 mmHg 95%
    01:00 +2°C° 0 mm 2 mps 591 mmHg 94%
    02:00 +2°C° 0.5 mm 2 mps 591 mmHg 93%
    03:00 +2°C° 0.5 mm 2 mps 591 mmHg 93%
    04:00 +2°C° 0.5 mm 2 mps 591 mmHg 93%
    05:00 +3°C° 0.7 mm 2 mps 591 mmHg 92%
    06:00 +3°C° 0.7 mm 2 mps 591 mmHg 92%
    07:00 +5°C° 0 mm 1 mps 592 mmHg 90%
    08:00 +6°C° 0.6 mm 1 mps 592 mmHg 87%
    09:00 +6°C° 0.6 mm 2 mps 592 mmHg 83%
    10:00 +7°C° 0.6 mm 2 mps 592 mmHg 80%
    11:00 +7°C° 0.6 mm 2 mps 593 mmHg 77%
    12:00 +8°C° 0.6 mm 2 mps 593 mmHg 73%
    13:00 +8°C° 0 mm 3 mps 593 mmHg 71%
    14:00 +8°C° 0.7 mm 3 mps 593 mmHg 71%
    15:00 +8°C° 0.7 mm 3 mps 593 mmHg 71%
    16:00 +8°C° 0.7 mm 3 mps 593 mmHg 71%
    17:00 +7°C° 0.4 mm 2 mps 593 mmHg 76%
    18:00 +6°C° 0.4 mm 2 mps 592 mmHg 80%
    19:00 +6°C° 0.4 mm 2 mps 592 mmHg 85%
    20:00 +5°C° 0.4 mm 2 mps 592 mmHg 88%
    21:00 +5°C° 0.4 mm 1 mps 591 mmHg 90%
    22:00 +4°C° 0.4 mm 1 mps 591 mmHg 92%
    23:00 +4°C° 0.4 mm 1 mps 591 mmHg 92%

    Tomorrow, 26 July, Wednesday

    Time Temperature Precipitation Wind Pressure Humidity
    00:00 +3°C° 0.4 mm 2 mps 591 mmHg 93%
    01:00 +3°C° 0.4 mm 2 mps 590 mmHg 93%
    02:00 +3°C° 0.2 mm 2 mps 590 mmHg 92%
    03:00 +3°C° 0.2 mm 2 mps 590 mmHg 92%
    04:00 +2°C° 0.2 mm 2 mps 590 mmHg 92%
    05:00 +3°C° 1.2 mm 2 mps 590 mmHg 91%
    06:00 +3°C° 1.2 mm 2 mps 590 mmHg 91%
    07:00 +3°C° 1.2 mm 2 mps 591 mmHg 91%
    08:00 +4°C° 1 mm 2 mps 591 mmHg 89%
    09:00 +5°C° 1 mm 2 mps 592 mmHg 87%
    10:00 +5°C° 1 mm 2 mps 592 mmHg 85%
    11:00 +6°C° 0.6 mm 2 mps 593 mmHg 83%
    12:00 +6°C° 0.6 mm 2 mps 593 mmHg 81%
    13:00 +7°C° 0.6 mm 3 mps 594 mmHg 79%
    14:00 +7°C° 0.6 mm 2 mps 594 mmHg 79%
    15:00 +7°C° 0.6 mm 2 mps 594 mmHg 79%
    16:00 +7°C° 0.6 mm 2 mps 594 mmHg 78%
    17:00 +6°C° 0.8 mm 2 mps 594 mmHg 82%
    18:00 +6°C° 0.8 mm 2 mps 593 mmHg 85%
    19:00 +5°C° 0.8 mm 2 mps 593 mmHg 89%
    20:00 +4°C° 0.6 mm 2 mps 593 mmHg 91%
    21:00 +4°C° 0.6 mm 2 mps 594 mmHg 92%
    22:00 +3°C° 0.6 mm 2 mps 594 mmHg 94%
    23:00 +3°C° 0.1 mm 2 mps 594 mmHg 94%

    Day after tomorrow, 27 July, Thursday

    Time Temperature Precipitation Wind Pressure Humidity
    00:00 +3°C° 0.1 mm 2 mps 594 mmHg 93%
    01:00 +3°C° 0.1 mm 2 mps 594 mmHg 93%
    02:00 +2°C° 0 mm 2 mps 593 mmHg 93%
    03:00 +2°C° 0 mm 2 mps 593 mmHg 92%
    04:00 +1°C° 0 mm 2 mps 593 mmHg 92%
    05:00 +3°C° 0 mm 2 mps 594 mmHg 87%
    06:00 +5°C° 0 mm 1 mps 594 mmHg 82%
    07:00 +7°C° 0 mm 1 mps 595 mmHg 77%
    08:00 +8°C° 0.1 mm 1 mps 596 mmHg 72%
    09:00 +9°C° 0.1 mm 1 mps 596 mmHg 66%
    10:00 +11°C° 0.1 mm 1 mps 596 mmHg 60%
    11:00 +11°C° 0.2 mm 1 mps 596 mmHg 62%
    12:00 +11°C° 0.2 mm 1 mps 597 mmHg 64%
    13:00 +11°C° 0.2 mm 1 mps 597 mmHg 66%
    14:00 +11°C° 0.7 mm 1 mps 596 mmHg 70%
    15:00 +11°C° 0.7 mm 1 mps 596 mmHg 74%
    16:00 +11°C° 0.7 mm 1 mps 596 mmHg 78%
    17:00 +10°C° 0.2 mm 1 mps 596 mmHg 80%
    18:00 +10°C° 0.2 mm 1 mps 596 mmHg 83%
    19:00 +10°C° 0.2 mm 1 mps 596 mmHg 86%
    20:00 +9°C° 0.1 mm 1 mps 596 mmHg 88%
    21:00 +8°C° 0.1 mm 1 mps 596 mmHg 90%
    22:00 +7°C° 0.1 mm 1 mps 596 mmHg 91%
    23:00 +7°C° 0.1 mm 1 mps 595 mmHg 92%

    28 July, Friday

    Time Temperature Precipitation Wind Pressure Humidity
    00:00 +6°C° 0.1 mm 1 mps 595 mmHg 92%
    01:00 +6°C° 0.1 mm 1 mps 595 mmHg 93%
    02:00 +6°C° 0.2 mm 1 mps 595 mmHg 93%
    03:00 +6°C° 0.2 mm 1 mps 595 mmHg 93%
    04:00 +6°C° 0.2 mm 1 mps 595 mmHg 93%
    05:00 +7°C° 0.3 mm 1 mps 596 mmHg 90%
    06:00 +8°C° 0.3 mm 1 mps 596 mmHg 88%
    07:00 +10°C° 0.3 mm 1 mps 597 mmHg 85%
    08:00 +11°C° 0.3 mm 1 mps 598 mmHg 82%
    09:00 +12°C° 0.3 mm 1 mps 599 mmHg 79%
    10:00 +14°C° 0.3 mm 1 mps 599 mmHg 75%
    11:00 +14°C° 0.2 mm 1 mps 600 mmHg 71%
    12:00 +15°C° 0.2 mm 2 mps 600 mmHg 67%
    13:00 +16°C° 0.2 mm 2 mps 600 mmHg 62%
    14:00 +16°C° 0.2 mm 2 mps 600 mmHg 64%
    15:00 +16°C° 0.2 mm 2 mps 600 mmHg 66%
    16:00 +16°C° 0.2 mm 2 mps 600 mmHg 67%
    17:00 +15°C° 0.1 mm 2 mps 600 mmHg 73%
    18:00 +14°C° 0.1 mm 2 mps 600 mmHg 79%
    19:00 +12°C° 0.1 mm 2 mps 600 mmHg 86%
    20:00 +11°C° 0 mm 1 mps 600 mmHg 89%
    21:00 +10°C° 0 mm 1 mps 599 mmHg 93%
    22:00 +8°C° 0 mm 1 mps 599 mmHg 96%
    23:00 +8°C° 0 mm 1 mps 599 mmHg 96%

    29 July, Saturday

    Time Temperature Precipitation Wind Pressure Humidity
    00:00 +8°C° 0 mm 1 mps 599 mmHg 95%
    01:00 +7°C° 0 mm 1 mps 599 mmHg 95%
    02:00 +7°C° 0 mm 1 mps 599 mmHg 95%
    03:00 +7°C° 0 mm 1 mps 599 mmHg 94%
    04:00 +7°C° 0 mm 1 mps 599 mmHg 94%
    05:00 +9°C° 0 mm 1 mps 599 mmHg 91%
    06:00 +11°C° 0 mm 1 mps 600 mmHg 88%
    07:00 +12°C° 0 mm 1 mps 601 mmHg 85%
    08:00 +14°C° 0.1 mm 1 mps 602 mmHg 78%
    09:00 +15°C° 0.1 mm 1 mps 602 mmHg 71%
    10:00 +18°C° 0.1 mm 1 mps 603 mmHg 64%
    11:00 +18°C° 0.5 mm 1 mps 603 mmHg 66%
    12:00 +16°C° 0.5 mm 2 mps 603 mmHg 68%
    13:00 +16°C° 0.5 mm 2 mps 603 mmHg 70%
    14:00 +16°C° 1.4 mm 1 mps 602 mmHg 74%
    15:00 +15°C° 1.4 mm 1 mps 602 mmHg 79%
    16:00 +15°C° 1.4 mm 1 mps 602 mmHg 84%
    17:00 +14°C° 3.2 mm 1 mps 601 mmHg 87%
    18:00 +13°C° 3.2 mm 1 mps 601 mmHg 91%
    19:00 +12°C° 3.2 mm 1 mps 601 mmHg 95%
    20:00 +12°C° 1.6 mm 1 mps 601 mmHg 96%
    21:00 +11°C° 1.6 mm 1 mps 601 mmHg 96%
    22:00 +10°C° 1.6 mm 1 mps 601 mmHg 97%
    23:00 +10°C° 0.4 mm 1 mps 600 mmHg 96%

    30 July, Sunday

    Time Temperature Precipitation Wind Pressure Humidity
    00:00 +10°C° 0.4 mm 1 mps 600 mmHg 96%
    01:00 +10°C° 0.4 mm 1 mps 600 mmHg 95%
    02:00 +9°C° 0.4 mm 1 mps 600 mmHg 95%
    03:00 +9°C° 0.4 mm 1 mps 599 mmHg 95%
    04:00 +9°C° 0.4 mm 1 mps 599 mmHg 95%
    05:00 +10°C° 0.1 mm 1 mps 600 mmHg 93%
    06:00 +11°C° 0.1 mm 1 mps 600 mmHg 91%
    07:00 +13°C° 0.1 mm 1 mps 601 mmHg 88%
    08:00 +15°C° 0.3 mm 1 mps 602 mmHg 76%
    09:00 +18°C° 0.3 mm 1 mps 602 mmHg 65%
    10:00 +21°C° 0.3 mm 1 mps 603 mmHg 53%
    11:00 +21°C° 0.6 mm 1 mps 603 mmHg 51%
    12:00 +21°C° 0.6 mm 1 mps 603 mmHg 49%
    13:00 +22°C° 0.6 mm 1 mps 603 mmHg 47%
    14:00 +21°C° 0.7 mm 1 mps 603 mmHg 49%
    15:00 +21°C° 0.7 mm 1 mps 603 mmHg 51%
    16:00 +21°C° 0.7 mm 1 mps 603 mmHg 53%
    17:00 +19°C° 1 mm 1 mps 602 mmHg 63%
    18:00 +18°C° 1 mm 1 mps 602 mmHg 72%
    19:00 +14°C° 1 mm 0 mps 601 mmHg 82%
    20:00 +14°C° 0.3 mm 1 mps 601 mmHg 85%
    21:00 +12°C° 0.3 mm 1 mps 601 mmHg 87%
    22:00 +11°C° 0.3 mm 1 mps 600 mmHg 90%
    23:00 +9°C° 0 mm 2 mps 600 mmHg 90%
    Show more